Skip Page Navigation
NASA JPL Caltech
NASA Logo - Jet Propulsion Laboratory + View the NASA Portal
+ Center for Near-Earth Object Studies
JPL Home Earth Solar System Stars & Galaxies Technology
JPL Solar System Dynamics
BODIES ORBITS EPHEMERIDES TOOLS PHYSICAL DATA DISCOVERY FAQ SITE MAP
IMPORTANT: The SSD Announcement email list is now available. Major changes are coming in the near future, including possible hostname and/or URL changes. To be notified of such changes, subscribe to this email list.

Please visit this page for more details.


JPL Small-Body Database Browser
Search: [ help ]  
71300 (2000 AB65)
Classification: Main-belt Asteroid          SPK-ID: 2071300
Ephemeris | Orbit Diagram | Orbital Elements | Mission Design | Physical Parameters | Discovery Circumstances | Close-Approach Data ]

[ show orbit diagram ]
Orbital Elements at Epoch 2459000.5 (2020-May-31.0) TDB
Reference: JPL 17 (heliocentric ecliptic J2000)
 Element Value Uncertainty (1-sigma)   Units 
e .1141968819456629 6.7811e-08  
a 2.66953253373658 1.8053e-08 au
q 2.364680242131358 1.829e-07 au
i 12.37886376601757 7.4795e-06 deg
node 312.800556345066 2.0724e-05 deg
peri 165.1390219031357 3.0455e-05 deg
M 250.9723626551928 2.2966e-05 deg
tp 2459482.986708587955
(2021-Sep-25.48670859)
0.00010361 TDB
period 1593.130139492437
4.36
1.6161e-05
4.425e-08
d
yr
n .2259702400173623 2.2922e-09 deg/d
Q 2.974384825341803 2.0115e-08 au
  Orbit Determination Parameters
   # obs. used (total)      868  
   data-arc span      7208 days (19.73 yr)  
   first obs. used      1998-09-19  
   last obs. used      2018-06-14  
   planetary ephem.      DE431  
   SB-pert. ephem.      SB431-N16  
   condition code      0  
   norm. resid. RMS      .51943  
   source      ORB  
   producer      Otto Matic  
   solution date      2018-Oct-04 02:14:21  

Additional Information
 Earth MOID = 1.38246 au 
 Jupiter MOID = 2.10477 au 
 T_jup = 3.339 
[ show covariance matrix ]

Ephemeris | Orbit Diagram | Orbital Elements | Mission Design | Physical Parameters | Discovery Circumstances | Close-Approach Data ]

Physical Parameter Table
Parameter Symbol Value Units Sigma Reference Notes
absolute magnitude H 14.3   n/a MPO347979  
diameter diameter 4.111 km 0.866 urn:nasa:pds:neowise_diameters_albedos::2.0[mainbelt] (http://adsabs.harvard.edu/abs/2011ApJ...741...68M)  
geometric albedo albedo 0.218   0.102 urn:nasa:pds:neowise_diameters_albedos::2.0[mainbelt] (http://adsabs.harvard.edu/abs/2011ApJ...741...68M)  

71300 (2000 AB65)          Discovered 2000-Jan-04 by LINEAR at Socorro
Reference: 20031109/Numbers.arcLast Updated: 2004-04-19

[ show close-approach data ]
Ephemeris | Orbit Diagram | Orbital Elements | Mission Design | Physical Parameters | Discovery Circumstances | Close-Approach Data ]
ABOUT SSD CREDITS/AWARDS PRIVACY/COPYRIGHT GLOSSARY LINKS
FirstGov 2020-Feb-20 10:54 UT
(server date/time)  
NASA Home Page
Site Manager:   Ryan S. Park
Webmaster  Alan B. Chamberlin